User: anonymous   Login
Location: Unspecified
(0.0000°N, 0.0000°E)
Time: 00:06:54
(UTC+00:00)
Language:

NAVSTAR 65 (USA 213) - Orbit

View from above orbital plane
View from above orbital plane
View from above satellite
View from above satellite

Ground track
Ground track

The orbit data is extracted from the following two-line orbital elements,

1 36585U 10022A   15065.47733587 -.00000078  00000-0  00000+0 0  9998
2 36585 056.0340 013.6372 0041653 035.7607 163.4184 02.00559409 34958
Epoch (UTC): 06 March 2015 11:27:21
Eccentricity: 0.0041653
inclination: 56.0340°
perigee height: 20072 km
apogee height: 20293 km
right ascension of ascending node: 13.6372°
argument of perigee: 35.7607°
revolutions per day: 2.00559409
mean anomaly at epoch: 163.4184°
orbit number at epoch: 3495

The dashed part of the orbit path shows where the satellite is in the earth's shadow,  

DLR